This demonstration page uses our WeatherBlox Daily Observations layout. Learn more.

Left ArrowRight Arrow

38.20091, -84.87328

Hourly Observations for July 8, 2022

Temp ( °F °C ) Dew Point ( °F °C ) Humidity (%) Winds ( mph kmh ) Pressure ( in mb ) Visibility ( mi km ) Precip ( " mm )
12:53 am 00:53 Mostly Cloudy 75 23.9 71 21.7 88 88 Calm 29.99 1016 10 16 0.00 0.00
1:53 am 01:53 Clear 73 22.8 70 21.1 90 90 Calm 29.98 1015 10 16 0.00 0.00
2:53 am 02:53 Clear 73 22.8 71 21.7 94 94 Calm 29.98 1015 10 16 0.00 0.00
3:53 am 03:53 Clear 73 22.8 71 21.7 94 94 Calm 29.98 1015 10 16 0.00 0.00
4:33 am 04:33 Partly Cloudy 72 22.2 70 21.1 94 94 Calm 29.97 1015 10 16 0.00 0.00
4:53 am 04:53 Mostly Clear 72 22.2 70 21.1 94 94 Calm 29.97 1015 9 14 0.00 0.00
5:53 am 05:53 Clear 71 21.7 69 20.6 94 94 Calm 29.98 1015 10 16 0.00 0.00
6:01 am 06:01 Partly Cloudy 71 21.7 69 20.6 94 94 Calm 29.99 1015 10 16 0.00 0.00
6:09 am 06:09 Mostly Cloudy 71 21.7 69 20.6 94 94 Calm 29.99 1015 10 16 0.00 0.00
6:45 am 06:45 Cloudy with Mist and Fog 73 22.8 72 22.2 96 96 SE 3 6 29.98 1015 2 2 0.00 0.00
6:48 am 06:48 Cloudy with Mist and Fog 73 23 72 22 94 94 SE 3 6 29.98 1015 1 1 0.00 0.00
6:53 am 06:53 Cloudy with Fog 73 22.8 72 22.2 96 96 SE 3 6 29.99 1016 1 1 0.00 0.00
7:07 am 07:07 Mostly Cloudy with Fog 73 22.8 72 22.2 96 96 SSE 5 7 29.99 1016 0 0 0.00 0.00
7:28 am 07:28 Mostly Cloudy with Mist and Fog 74 23.3 72 22.2 94 94 SSE 3 6 29.99 1016 1 1 0.00 0.00
7:37 am 07:37 Cloudy with Mist and Fog 74 23.3 72 22.2 94 94 SSE 6 9 29.99 1016 1 2 0.00 0.00
7:43 am 07:43 Cloudy with Mist and Fog 74 23.3 72 22.2 94 94 S 6 9 29.99 1016 3 5 0.00 0.00
7:53 am 07:53 Cloudy with Mist and Fog 74 23.3 73 22.8 97 97 S 5 7 30.00 1016 3 5 0.00 0.00
8:20 am 08:20 Cloudy with Mist and Fog 74 23.3 72 22.2 94 94 SSE 3 6 29.99 1016 2 3 0.00 0.00
8:26 am 08:26 Cloudy with Mist and Fog 74 23.3 73 22.8 97 97 SSE 5 7 30.00 1016 3 5 0.00 0.00
8:53 am 08:53 Cloudy 75 23.9 72 22.2 90 90 S 8 13 30.00 1016 7 11 0.00 0.00
9:08 am 09:08 Cloudy 75 23.9 72 22.2 90 90 SSE 7 11 30.00 1016 9 14 0.00 0.00
9:24 am 09:24 Cloudy 76 24.4 73 22.8 91 91 SSE 7 11 30.00 1016 10 16 0.00 0.00
9:53 am 09:53 Cloudy 77 25 73 22.8 88 88 S 8 13 30.01 1016 10 16 0.00 0.00
10:50 am 10:50 Mostly Cloudy 81 27 73 23 79 79 VRB 6 9 29.97 1015 10 16 0.00 0.00
10:53 am 10:53 Mostly Cloudy 81 27.2 74 23.3 79 79 SSE 7 11 29.98 1015 10 16 0.00 0.00
11:32 am 11:32 Cloudy with Light Rain 79 26.1 73 22.8 82 82 NNW 10 17 30.00 1016 8 13 0.01 0.25
11:53 am 11:53 Cloudy with Heavy Rain 77 25 73 22.8 88 88 NW 9 15 30.03 1017 2 3 0.07 1.78
11:56 am 11:56 Cloudy with Rain 76 24.4 73 22.8 91 91 NW 9 15 30.03 1017 2 3 0.00 0.00
12:06 pm 12:06 Cloudy with Light Rain 75 23.9 73 22.8 94 94 NW 10 17 30.03 1017 5 8 0.01 0.25
12:11 pm 12:11 Cloudy with Rain 75 23.9 73 22.8 94 94 NW 9 15 30.02 1017 2 2 0.07 1.78
12:17 pm 12:17 Cloudy with Heavy Rain 75 23.9 73 22.8 94 94 NW 7 11 30.03 1017 1 2 0.11 2.79
12:42 pm 12:42 Cloudy with Rain 74 23.3 72 22.2 94 94 VRB 3 6 30.03 1017 2 2 0.30 7.62
12:48 pm 12:48 Cloudy with Light Rain 75 24 72 22 89 89 NNW 6 9 30.03 1017 3 5 0.30 7.62
12:53 pm 12:53 Cloudy with Light Rain 75 23.9 72 22.2 90 90 N 8 13 30.02 1017 9 14 0.30 7.62
1:53 pm 13:53 Mostly Cloudy 75 23.9 70 21.1 84 84 WNW 6 9 30.02 1017 10 16 0.00 0.00
2:42 pm 14:42 Mostly Cloudy with Light Rain 75 23.9 71 21.7 88 88 S 3 6 29.98 1015 2 3 0.03 0.76
2:51 pm 14:51 Mostly Cloudy with Light Rain 75 24 72 22 89 89 SSE 5 7 29.97 1015 4 6 0.04 1.02
2:53 pm 14:53 Cloudy with Light Rain 76 24.4 72 22.2 88 88 SSE 5 7 29.98 1015 9 14 0.04 1.02
3:53 pm 15:53 Mostly Cloudy 76 24.4 72 22.2 88 88 S 6 9 29.95 1014 10 16 0.00 0.00
4:53 pm 16:53 Sunny 77 25 72 22.2 85 85 SW 6 9 29.95 1014 10 16 0.00 0.00
5:53 pm 17:53 Sunny 78 25.6 72 22.2 82 82 WSW 5 7 29.96 1014 10 16 0.00 0.00
6:53 pm 18:53 Sunny 78 25.6 73 22.8 85 85 Calm 29.95 1014 10 16 0.00 0.00
7:53 pm 19:53 Sunny 78 25.6 73 22.8 85 85 Calm 29.95 1014 10 16 0.00 0.00
8:05 pm 20:05 Mostly Sunny 78 25.6 73 22.8 85 85 SSE 5 7 29.94 1014 10 16 0.00 0.00
8:21 pm 20:21 Mostly Cloudy 78 25.6 73 22.8 85 85 Calm 29.95 1014 10 16 0.00 0.00
8:31 pm 20:31 Mostly Cloudy 78 25.6 73 22.8 85 85 E 3 6 29.95 1014 10 16 0.00 0.00
8:53 pm 20:53 Mostly Cloudy 77 25 73 22.8 88 88 Calm 29.96 1015 10 16 0.00 0.00
9:53 pm 21:53 Partly Cloudy 76 24.4 72 22.2 88 88 E 3 6 29.96 1015 10 16 0.00 0.00
10:53 pm 22:53 Cloudy 75 23.9 73 22.8 94 94 Calm 29.98 1015 10 16 0.00 0.00
11:53 pm 23:53 Mostly Cloudy 74 23.3 72 22.2 94 94 Calm 29.97 1015 10 16 0.00 0.00

Powered by AerisWeather